Regional Weather Roundup
Issued by NWS

Home | Current Version | Previous Version | Graphics & Text | Print | Product List | Glossary On
Versions: 1 2 3 4 5 6 7 8 9 10 11 12 13 14 15 16 17 18 19 20 21 22 23 24 25 26 27 28 29 30 31 32 33 34 35 36 37 38 39 40 41 42 43 44 45 46 47 48 49 50
000
ASUS43 KLSX 220207
RWRMO

WEATHER SUMMARY FOR MISSOURI
NATIONAL WEATHER SERVICE SPRINGFIELD MO
800 PM CST FRI NOV 21 2014

NOTE: "FAIR" INDICATES FEW OR NO CLOUDS BELOW 12,000 FEET WITH NO
       SIGNIFICANT WEATHER AND/OR OBSTRUCTIONS TO VISIBILITY.
       CURRENT SKY AND/OR WEATHER CONDITIONS ARE NOT AVAILABLE FOR
       CHILLICOTHE AND FARMINGTON.

MOZ001>031-035>038-043-044-053-054-220300-
...NORTHERN AND WESTERN MISSOURI...

CITY           SKY/WX    TMP DP  RH WIND       PRES   REMARKS
KANSAS CTY INT CLOUDY    41  37  86 SE7       30.07S
KANSAS C DTWN  CLOUDY    47  39  74 SE7       30.07F
LEE`S SUMMIT   CLOUDY    45  39  79 S6        30.09R
ST JOSEPH      CLOUDY    40  33  76 SE7       30.09S
CHILLICOTHE      N/A     39  31  72 SE5       30.12F
KIRKSVILLE     CLOUDY    38  25  59 SE14G22   30.14F WCI  30

$$
MOZ066>068-077>081-088>096-101>105-220300-
...SOUTHWEST MISSOURI...

CITY           SKY/WX    TMP DP  RH WIND       PRES   REMARKS
SPRINGFIELD    CLOUDY    43  40  89 SE14      30.15R
JOPLIN         CLOUDY    50  45  83 SE10      30.12R

$$
MOZ032>034-039>042-045>050-055>058-069>072-220300-
...CENTRAL MISSOURI...

CITY           SKY/WX    TMP DP  RH WIND       PRES   REMARKS
COLUMBIA       CLOUDY    44  28  53 SE10      30.16F
JEFFERSON CITY CLOUDY    46  31  55 SE10      30.18F
ROLLA          CLOUDY    42  35  76 S12       30.18S
SEDALIA        MOCLDY    45  31  58 S13       30.13S
WHITEMAN AFB   CLOUDY    45  39  79 S12       30.10S
WARRENSBURG    CLOUDY    45  37  76 SE7       30.10S
OSAGE BEACH    CLOUDY    45  36  70 S10       30.17S

$$
MOZ051-052-059>065-220300-
...EAST CENTRAL MISSOURI...

CITY           SKY/WX    TMP DP  RH WIND       PRES   REMARKS
ST LOUIS INTL  CLOUDY    43  23  45 SE13      30.26F
SPIRIT OF STL  CLOUDY    43  25  49 SE5       30.25S
ST CHARLES     CLOUDY    40  24  53 SE12      30.25F

$$
MOZ072>076-082>087-097>100-106>115-220300-
...SOUTH CENTRAL AND SOUTHEAST MISSOURI...

CITY           SKY/WX    TMP DP  RH WIND       PRES   REMARKS
CAPE GIRARDEAU LGT RAIN  42  35  76 E6        30.31F
FARMINGTON     CLOUDY    37  36  93 SE7       30.28F
POPLAR BLUFF   CLOUDY    41  37  86 CALM      30.30F FOG
WEST PLAINS    FOG       38  37  97 SE9       30.24F VSB 3/4

$$



USA.gov is the U.S. government's official web portal to all federal, state and local government web resources and services.